Ottumwa, IA

2:23 PM CDT on October 22, 2019 (GMT -0500)
Ottumwa Industrial

Weather History for KOTM - August, 2019

Change the Weather History Date:

Wednesday, August 7, 2019

  Actual Average Record
Temperature  
Mean Temperature 74 °F 74 °F  
Max Temperature 87 °F 85 °F 107 °F (1934)
Min Temperature 61 °F 64 °F 49 °F (1989)
Degree Days  
Heating Degree Days 0 0  
Month to date heating degree days 0 0  
Since 1 June heating degree days 4 23  
Since 1 July heating degree days 0 2  
Cooling Degree Days 9 9  
Month to date cooling degree days 60 65  
Year to date cooling degree days 707 644  
Since 1 June cooling degree days 644 580  
Growing Degree Days 24 (Base 50)    
Moisture  
Dew Point 64 °F    
Average Humidity 74    
Maximum Humidity 100    
Minimum Humidity 48    
Precipitation  
Precipitation 0.00 in 0.15 in 1.48 in (1977)
Month to date precipitation 0.14 1.00  
Year to date precipitation 26.66 23.09  
Sea Level Pressure  
Sea Level Pressure 29.85 in    
Wind  
Wind Speed 5 mph (SW)    
Max Wind Speed 12 mph    
Max Gust Speed 18 mph    
Visibility 10 miles    
Events      
T = Trace of Precipitation, MM = Missing Value Source: NWS Daily Summary

Daily Weather History Graph

Daily Weather History Graph

Search for Another Location

Airport or City:

Astronomy

Aug. 07, 2019 Rise Set
Actual Time 6:11 AM CDT 8:19 PM CDT
Civil Twilight 5:40 AM CDT 8:49 PM CDT
Nautical Twilight 5:03 AM CDT 9:26 PM CDT
Astronomical Twilight 4:22 AM CDT 10:07 PM CDT
Moon 1:47 PM CDT (8/7) 12:02 AM CDT (8/7)
Length of Visible Light 15h 08m
Length of Day
14h 08m
Waxing Crescent, 50% of the Moon is Illuminated
Aug 7
Waxing Crescent
Aug 7
First Quarter
Aug 15
Full
Aug 23
Last Quarter
Aug 30
New

Hourly Weather History & Observations

Time (CDT) Temp. Heat Index Dew Point Humidity Pressure Visibility Wind Dir Wind Speed Gust Speed Precip Events Conditions
12:53 AM 63.0 °F - 61.0 °F 93% 29.89 in 10.0 mi WSW 3.5 mph - N/A   Clear
1:53 AM 63.0 °F - 61.0 °F 93% 29.89 in 10.0 mi West 3.5 mph - N/A   Clear
2:53 AM 62.1 °F - 60.1 °F 93% 29.88 in 10.0 mi WSW 3.5 mph - N/A   Clear
3:53 AM 63.0 °F - 61.0 °F 93% 29.86 in 10.0 mi Calm Calm - N/A   Clear
4:53 AM 62.1 °F - 60.1 °F 93% 29.86 in 10.0 mi South 3.5 mph - N/A   Clear
5:53 AM 61.0 °F - 59.0 °F 93% 29.85 in 10.0 mi South 3.5 mph - N/A   Clear
6:53 AM 63.0 °F - 62.1 °F 97% 29.86 in 10.0 mi SSW 3.5 mph - N/A   Clear
7:53 AM 68.0 °F - 64.0 °F 87% 29.88 in 10.0 mi Calm Calm - N/A   Clear
8:53 AM 73.0 °F - 64.9 °F 76% 29.89 in 10.0 mi South 5.8 mph - N/A   Clear
9:53 AM 78.1 °F - 66.0 °F 66% 29.89 in 10.0 mi SSW 5.8 mph - N/A   Clear
10:53 AM 81.0 °F 82.7 °F 64.9 °F 58% 29.87 in 10.0 mi SSW 6.9 mph - N/A   Clear
11:53 AM 82.9 °F 84.6 °F 64.9 °F 54% 29.86 in 10.0 mi SSW 9.2 mph - N/A   Partly Cloudy
12:53 PM 84.0 °F 85.8 °F 64.9 °F 53% 29.86 in 10.0 mi SW 8.1 mph - N/A   Clear
1:53 PM 86.0 °F 88.2 °F 66.0 °F 51% 29.84 in 10.0 mi SSW 9.2 mph - N/A   Clear
2:53 PM 86.0 °F 87.6 °F 64.9 °F 49% 29.83 in 10.0 mi SSW 6.9 mph - N/A   Clear
3:53 PM 87.1 °F 89.2 °F 66.0 °F 49% 29.82 in 10.0 mi South 3.5 mph - N/A   Clear
4:53 PM 86.0 °F 88.2 °F 66.0 °F 51% 29.82 in 10.0 mi WSW 8.1 mph - N/A   Clear
5:53 PM 86.0 °F 87.6 °F 64.9 °F 49% 29.81 in 10.0 mi WSW 5.8 mph - N/A   Clear
6:53 PM 84.9 °F 86.1 °F 64.0 °F 49% 29.81 in 10.0 mi West 4.6 mph - N/A   Clear
7:53 PM 81.0 °F 84.4 °F 70.0 °F 69% 29.80 in 10.0 mi Calm Calm - N/A   Clear
8:53 PM 73.9 °F - 69.1 °F 85% 29.81 in 10.0 mi Calm Calm - N/A   Clear
9:53 PM 73.9 °F - 66.0 °F 76% 29.83 in 10.0 mi SSW 5.8 mph - N/A   Clear
10:53 PM 71.1 °F - 66.0 °F 84% 29.84 in 10.0 mi WSW 4.6 mph - N/A   Clear
11:53 PM 73.0 °F - 66.9 °F 81% 29.84 in 10.0 mi West 5.8 mph - N/A   Clear